When you browse on this site, cookies collect data to enhance your experience and personalize the content and advertising you see.
Visit our Privacy Policy to learn more. By continuing to use the site, you agree to this use of cookies and data.
  • In Spain
  • List of Countries
  • For 7 days
  • Water Temperature
  • Weather Map
  • Weather Widgets
  • user-avatar
    Login

    Hourly Weather San Juan

    Today, 23 October, Wednesday

    Time Temperature Precipitation Wind Pressure Humidity
    00:00 +18°C° 0 mm 3 mps 706 mmHg 37%
    01:00 +17°C° 0 mm 3 mps 706 mmHg 40%
    02:00 +17°C° 0 mm 3 mps 706 mmHg 41%
    03:00 +16°C° 0 mm 3 mps 706 mmHg 41%
    04:00 +16°C° 0 mm 3 mps 706 mmHg 42%
    05:00 +17°C° 0 mm 3 mps 706 mmHg 38%
    06:00 +18°C° 0 mm 3 mps 707 mmHg 33%
    07:00 +19°C° 0 mm 4 mps 707 mmHg 29%
    08:00 +20°C° 0 mm 3 mps 707 mmHg 27%
    09:00 +22°C° 0 mm 3 mps 707 mmHg 24%
    10:00 +24°C° 0 mm 3 mps 707 mmHg 21%
    11:00 +25°C° 0 mm 3 mps 706 mmHg 21%
    12:00 +26°C° 0 mm 2 mps 706 mmHg 21%
    13:00 +26°C° 0 mm 2 mps 705 mmHg 20%
    14:00 +27°C° 0 mm 2 mps 705 mmHg 20%
    15:00 +27°C° 0 mm 2 mps 704 mmHg 19%
    16:00 +27°C° 0 mm 2 mps 704 mmHg 19%
    17:00 +27°C° 0 mm 2 mps 704 mmHg 20%
    18:00 +26°C° 0 mm 2 mps 705 mmHg 21%
    19:00 +25°C° 0 mm 2 mps 705 mmHg 22%
    20:00 +24°C° 0 mm 2 mps 705 mmHg 24%
    21:00 +23°C° 0 mm 1 mps 705 mmHg 25%
    22:00 +20°C° 0 mm 0 mps 705 mmHg 27%
    23:00 +20°C° 0 mm 0 mps 704 mmHg 28%

    Tomorrow, 24 October, Thursday

    Time Temperature Precipitation Wind Pressure Humidity
    00:00 +19°C° 0 mm 0 mps 704 mmHg 30%
    01:00 +19°C° 0 mm 0 mps 704 mmHg 31%
    02:00 +18°C° 0 mm 0 mps 703 mmHg 33%
    03:00 +18°C° 0 mm 0 mps 703 mmHg 34%
    04:00 +19°C° 0 mm 1 mps 703 mmHg 35%
    05:00 +21°C° 0 mm 1 mps 704 mmHg 34%
    06:00 +23°C° 0 mm 1 mps 704 mmHg 33%
    07:00 +24°C° 0 mm 1 mps 704 mmHg 31%
    08:00 +26°C° 0 mm 1 mps 704 mmHg 30%
    09:00 +27°C° 0 mm 2 mps 704 mmHg 29%
    10:00 +28°C° 0 mm 2 mps 704 mmHg 28%
    11:00 +30°C° 0 mm 3 mps 704 mmHg 25%
    12:00 +31°C° 0 mm 3 mps 704 mmHg 21%
    13:00 +33°C° 0 mm 3 mps 703 mmHg 18%
    14:00 +33°C° 0 mm 4 mps 703 mmHg 17%
    15:00 +33°C° 0 mm 4 mps 703 mmHg 16%
    16:00 +34°C° 0 mm 5 mps 702 mmHg 14%
    17:00 +32°C° 0 mm 5 mps 703 mmHg 15%
    18:00 +30°C° 0 mm 5 mps 704 mmHg 16%
    19:00 +28°C° 0 mm 4 mps 704 mmHg 17%
    20:00 +28°C° 0 mm 4 mps 705 mmHg 18%
    21:00 +27°C° 0 mm 3 mps 705 mmHg 19%
    22:00 +26°C° 0 mm 2 mps 705 mmHg 19%
    23:00 +25°C° 0 mm 3 mps 705 mmHg 22%

    Day after tomorrow, 25 October, Friday

    Time Temperature Precipitation Wind Pressure Humidity
    00:00 +25°C° 0 mm 4 mps 705 mmHg 25%
    01:00 +23°C° 0 mm 4 mps 705 mmHg 27%
    02:00 +22°C° 0 mm 4 mps 705 mmHg 35%
    03:00 +21°C° 0 mm 4 mps 705 mmHg 43%
    04:00 +19°C° 0 mm 3 mps 705 mmHg 51%
    05:00 +20°C° 0 mm 4 mps 706 mmHg 49%
    06:00 +21°C° 0 mm 5 mps 706 mmHg 46%
    07:00 +22°C° 0 mm 6 mps 707 mmHg 44%
    08:00 +24°C° 0 mm 6 mps 707 mmHg 40%
    09:00 +26°C° 0 mm 6 mps 706 mmHg 37%
    10:00 +28°C° 0 mm 5 mps 706 mmHg 33%
    11:00 +29°C° 0 mm 4 mps 706 mmHg 30%
    12:00 +30°C° 0 mm 4 mps 705 mmHg 27%
    13:00 +30°C° 0 mm 3 mps 704 mmHg 24%
    14:00 +31°C° 0 mm 2 mps 704 mmHg 23%
    15:00 +31°C° 0 mm 2 mps 703 mmHg 23%
    16:00 +32°C° 0 mm 2 mps 703 mmHg 22%
    17:00 +30°C° 0 mm 2 mps 703 mmHg 24%
    18:00 +29°C° 0 mm 1 mps 703 mmHg 26%
    19:00 +28°C° 0 mm 1 mps 703 mmHg 28%
    20:00 +27°C° 0 mm 1 mps 703 mmHg 30%
    21:00 +27°C° 0 mm 1 mps 703 mmHg 32%
    22:00 +26°C° 0 mm 1 mps 703 mmHg 33%
    23:00 +26°C° 0 mm 1 mps 702 mmHg 36%

    26 October, Saturday

    Time Temperature Precipitation Wind Pressure Humidity
    00:00 +25°C° 0 mm 1 mps 701 mmHg 38%
    01:00 +25°C° 0 mm 2 mps 700 mmHg 41%
    02:00 +24°C° 0 mm 2 mps 700 mmHg 43%
    03:00 +24°C° 0 mm 3 mps 700 mmHg 45%
    04:00 +22°C° 0 mm 3 mps 699 mmHg 47%
    05:00 +25°C° 0 mm 4 mps 699 mmHg 43%
    06:00 +26°C° 0 mm 4 mps 700 mmHg 39%
    07:00 +28°C° 0 mm 4 mps 700 mmHg 35%
    08:00 +30°C° 0 mm 4 mps 700 mmHg 28%
    09:00 +34°C° 0 mm 5 mps 699 mmHg 21%
    10:00 +36°C° 0 mm 6 mps 699 mmHg 15%
    11:00 +38°C° 0 mm 6 mps 699 mmHg 11%
    12:00 +40°C° 0 mm 6 mps 699 mmHg 8%
    13:00 +41°C° 0 mm 6 mps 698 mmHg 4%
    14:00 +41°C° 0 mm 7 mps 698 mmHg 4%
    15:00 +40°C° 0 mm 8 mps 698 mmHg 4%
    16:00 +40°C° 0 mm 8 mps 697 mmHg 3%
    17:00 +38°C° 0 mm 7 mps 698 mmHg 4%
    18:00 +34°C° 0 mm 6 mps 698 mmHg 4%
    19:00 +32°C° 0 mm 5 mps 699 mmHg 5%
    20:00 +30°C° 0 mm 5 mps 699 mmHg 6%
    21:00 +29°C° 0 mm 5 mps 699 mmHg 8%
    22:00 +28°C° 0 mm 5 mps 700 mmHg 9%
    23:00 +27°C° 0 mm 5 mps 700 mmHg 14%

    27 October, Sunday

    Time Temperature Precipitation Wind Pressure Humidity
    00:00 +26°C° 0 mm 6 mps 700 mmHg 18%
    01:00 +23°C° 0 mm 7 mps 700 mmHg 22%
    02:00 +23°C° 0 mm 7 mps 700 mmHg 26%
    03:00 +22°C° 0 mm 7 mps 701 mmHg 30%
    04:00 +22°C° 0 mm 8 mps 701 mmHg 33%
    05:00 +21°C° 0 mm 8 mps 701 mmHg 33%
    06:00 +21°C° 0 mm 9 mps 702 mmHg 33%
    07:00 +21°C° 0 mm 10 mps 702 mmHg 32%
    08:00 +21°C° 0 mm 9 mps 702 mmHg 30%
    09:00 +22°C° 0 mm 8 mps 702 mmHg 28%
    10:00 +22°C° 0 mm 7 mps 702 mmHg 25%
    11:00 +23°C° 0 mm 6 mps 701 mmHg 24%
    12:00 +25°C° 0 mm 5 mps 700 mmHg 23%
    13:00 +26°C° 0 mm 4 mps 700 mmHg 21%
    14:00 +26°C° 0 mm 4 mps 700 mmHg 20%
    15:00 +27°C° 0 mm 4 mps 699 mmHg 20%
    16:00 +27°C° 0 mm 4 mps 699 mmHg 19%
    17:00 +26°C° 0 mm 3 mps 699 mmHg 20%
    18:00 +25°C° 0 mm 3 mps 700 mmHg 21%
    19:00 +24°C° 0 mm 2 mps 700 mmHg 22%
    20:00 +22°C° 0 mm 3 mps 700 mmHg 23%
    21:00 +21°C° 0 mm 3 mps 701 mmHg 24%
    22:00 +21°C° 0 mm 3 mps 701 mmHg 24%
    23:00 +20°C° 0 mm 4 mps 701 mmHg 27%

    28 October, Monday

    Time Temperature Precipitation Wind Pressure Humidity
    00:00 +19°C° 0 mm 4 mps 700 mmHg 30%
    01:00 +18°C° 0 mm 4 mps 700 mmHg 33%
    02:00 +17°C° 0 mm 3 mps 700 mmHg 34%
    03:00 +17°C° 0 mm 3 mps 699 mmHg 36%
    04:00 +16°C° 0 mm 2 mps 699 mmHg 37%
    05:00 +17°C° 0 mm 2 mps 699 mmHg 35%
    06:00 +18°C° 0 mm 3 mps 699 mmHg 34%
    07:00 +19°C° 0 mm 3 mps 699 mmHg 32%
    08:00 +20°C° 0 mm 3 mps 699 mmHg 30%
    09:00 +23°C° 0 mm 2 mps 698 mmHg 28%
    10:00 +25°C° 0 mm 2 mps 698 mmHg 25%
    11:00 +27°C° 0 mm 3 mps 697 mmHg 22%
    12:00 +29°C° 0 mm 3 mps 697 mmHg 19%
    13:00 +32°C° 0 mm 4 mps 697 mmHg 15%
    14:00 +33°C° 0 mm 6 mps 697 mmHg 13%
    15:00 +33°C° 0 mm 8 mps 697 mmHg 11%
    16:00 +33°C° 0 mm 10 mps 697 mmHg 10%
    17:00 +31°C° 0 mm 10 mps 698 mmHg 11%
    18:00 +29°C° 0 mm 9 mps 698 mmHg 13%
    19:00 +27°C° 0 mm 8 mps 699 mmHg 15%
    20:00 +26°C° 0 mm 7 mps 700 mmHg 18%
    21:00 +23°C° 0 mm 6 mps 700 mmHg 21%
    22:00 +22°C° 0 mm 5 mps 701 mmHg 24%
    23:00 +21°C° 0 mm 6 mps 701 mmHg 23%

    29 October, Tuesday

    Time Temperature Precipitation Wind Pressure Humidity
    00:00 +20°C° 0 mm 6 mps 701 mmHg 22%
    01:00 +19°C° 0 mm 6 mps 701 mmHg 20%
    02:00 +17°C° 0 mm 6 mps 701 mmHg 28%
    03:00 +17°C° 0 mm 5 mps 702 mmHg 35%
    04:00 +16°C° 0 mm 5 mps 702 mmHg 42%
    05:00 +17°C° 0 mm 5 mps 703 mmHg 36%
    06:00 +17°C° 0 mm 5 mps 703 mmHg 30%
    07:00 +19°C° 0 mm 4 mps 703 mmHg 23%
    08:00 +20°C° 0 mm 4 mps 703 mmHg 21%
    09:00 +21°C° 0 mm 4 mps 703 mmHg 19%
    10:00 +22°C° 0 mm 3 mps 703 mmHg 17%
    11:00 +24°C° 0 mm 3 mps 702 mmHg 16%
    12:00 +25°C° 0 mm 3 mps 701 mmHg 14%
    13:00 +27°C° 0 mm 3 mps 701 mmHg 13%
    14:00 +27°C° 0 mm 3 mps 700 mmHg 12%
    15:00 +27°C° 0 mm 3 mps 700 mmHg 12%
    16:00 +28°C° 0 mm 3 mps 700 mmHg 11%
    17:00 +26°C° 0 mm 3 mps 700 mmHg 12%
    18:00 +25°C° 0 mm 3 mps 700 mmHg 13%
    19:00 +24°C° 0 mm 3 mps 701 mmHg 14%
    20:00 +22°C° 0 mm 3 mps 701 mmHg 15%
    21:00 +21°C° 0 mm 3 mps 701 mmHg 15%
    22:00 +21°C° 0 mm 2 mps 702 mmHg 16%
    23:00 +20°C° 0 mm 3 mps 702 mmHg 17%
    Show more